�N����,����,�~����,�C��,���x,�C��,����,���ϕ���,�ő�u�ԕ���,�ő厞����,���˗�,�I�_���x,�n�����x,�ő啗���N��,DTYPE
"23/09/27","00:10",0.0,23.3,84.0,1007.4,339.2,0.6,1.2,322.0,0.00,20.5,24.0,"00:03:12",1
"23/09/27","00:20",0.0,23.2,84.0,1007.4,299.8,0.6,1.0,350.2,0.00,20.4,24.1,"00:10:08",1
"23/09/27","00:30",0.0,23.1,84.6,1007.8,51.1,0.2,1.0,276.3,0.00,20.4,24.1,"00:29:52",1
"23/09/27","00:40",0.0,23.1,85.2,1007.6,318.1,1.0,1.3,311.6,0.00,20.5,24.1,"00:30:48",1
"23/09/27","00:50",0.0,23.0,85.7,1007.8,337.7,1.2,1.6,340.8,0.00,20.5,24.1,"00:44:08",1
"23/09/27","01:00",0.0,23.1,86.1,1007.1,330.2,1.1,1.6,312.2,0.00,20.7,23.9,"00:50:32",1
"23/09/27","01:10",0.0,23.0,86.4,1007.4,262.7,0.1,0.5,278.0,0.00,20.6,24.0,"01:00:08",1
"23/09/27","01:20",0.0,22.9,86.7,1007.6,301.8,0.6,1.2,318.6,0.00,20.6,23.9,"01:14:56",1
"23/09/27","01:30",0.0,22.9,87.1,1007.6,23.6,0.2,0.9,316.7,0.00,20.7,23.9,"01:20:24",1
"23/09/27","01:40",0.0,23.1,87.5,1007.6,327.1,0.8,1.3,300.5,0.00,21.0,24.0,"01:33:52",1
"23/09/27","01:50",0.0,23.2,87.8,1007.6,327.7,0.7,1.3,334.3,0.00,21.1,23.8,"01:46:32",1
"23/09/27","02:00",0.0,23.1,88.0,1007.1,330.9,1.1,1.3,316.6,0.00,21.0,23.9,"01:51:52",1
"23/09/27","02:10",0.0,23.0,88.4,1007.1,298.4,1.0,1.6,315.8,0.00,21.0,23.7,"02:07:28",1
"23/09/27","02:20",0.0,23.0,88.7,1006.7,312.3,1.0,1.3,322.8,0.00,21.1,23.8,"02:13:44",1
"23/09/27","02:30",0.0,23.1,88.8,1006.7,316.1,1.0,1.6,307.0,0.00,21.2,23.8,"02:20:02",1
"23/09/27","02:40",0.0,23.2,88.8,1006.7,309.2,1.0,1.7,328.3,0.00,21.3,24.0,"02:36:08",1
"23/09/27","02:50",0.0,23.2,88.8,1006.9,311.4,0.8,1.3,320.4,0.00,21.3,23.8,"02:47:28",1
"23/09/27","03:00",0.0,23.3,88.7,1006.7,321.7,0.8,1.6,335.2,0.00,21.4,23.8,"02:56:24",1
"23/09/27","03:10",0.0,23.3,88.7,1006.4,318.2,0.6,0.9,321.7,0.00,21.4,23.7,"03:00:16",1
"23/09/27","03:20",0.0,23.3,88.8,1006.9,329.0,1.0,1.4,331.1,0.00,21.4,23.9,"03:12:32",1
"23/09/27","03:30",0.0,23.2,89.0,1006.7,295.8,0.5,1.3,321.3,0.00,21.3,23.7,"03:21:36",1
"23/09/27","03:40",0.0,23.1,89.1,1006.7,300.5,0.7,1.2,312.7,0.00,21.2,23.7,"03:38:00",1
"23/09/27","03:50",0.0,23.1,89.2,1006.0,300.2,0.6,1.1,333.1,0.00,21.3,23.8,"03:47:44",1
"23/09/27","04:00",0.0,23.1,89.4,1006.4,312.0,0.8,1.2,315.9,0.00,21.3,23.7,"03:59:28",1
"23/09/27","04:10",0.0,23.2,89.4,1006.7,327.0,1.1,1.9,335.0,0.00,21.4,23.8,"04:03:44",1
"23/09/27","04:20",0.0,23.2,89.4,1006.7,303.9,0.7,1.0,321.3,0.00,21.4,23.6,"04:10:08",1
"23/09/27","04:30",0.0,23.1,89.4,1006.7,314.3,0.8,1.2,296.4,0.00,21.3,23.7,"04:20:16",1
"23/09/27","04:40",0.0,23.1,89.5,1006.7,290.7,0.5,1.0,323.2,0.00,21.3,23.7,"04:31:36",1
"23/09/27","04:50",0.0,23.0,89.5,1007.1,306.6,0.6,1.3,308.0,0.00,21.2,23.8,"04:49:36",1
"23/09/27","05:00",0.0,23.0,89.6,1007.1,310.7,1.0,1.3,314.4,0.00,21.2,23.7,"04:59:44",1
"23/09/27","05:10",0.0,23.0,89.7,1006.9,298.7,0.6,1.2,325.1,0.00,21.3,23.7,"05:00:32",1
"23/09/27","05:20",0.0,22.9,89.7,1006.9,314.4,0.7,1.3,322.1,0.00,21.2,23.6,"05:16:40",1
"23/09/27","05:30",0.0,22.9,89.7,1006.9,291.6,0.6,0.9,319.5,0.00,21.2,23.7,"05:20:08",1
"23/09/27","05:40",0.0,22.8,89.8,1006.9,284.0,0.3,0.9,273.9,0.00,21.1,23.8,"05:31:44",1
"23/09/27","05:50",0.0,22.8,89.9,1006.9,291.4,0.5,1.0,327.9,0.00,21.1,23.7,"05:49:52",1
"23/09/27","06:00",0.0,23.0,90.1,1007.1,331.0,1.0,1.6,333.5,0.00,21.3,23.7,"05:59:36",1
"23/09/27","06:10",0.0,23.1,90.2,1006.9,333.0,1.0,1.4,345.6,0.00,21.4,23.7,"06:00:08",1
"23/09/27","06:20",0.0,22.9,90.4,1006.9,286.3,0.3,1.1,326.2,0.00,21.3,23.6,"06:10:16",1
"23/09/27","06:30",0.0,23.1,90.6,1006.7,313.0,0.6,1.0,338.2,0.00,21.5,23.6,"06:24:08",1
"23/09/27","06:40",0.0,23.3,90.8,1007.1,340.4,1.0,1.3,338.3,0.01,21.8,23.5,"06:35:28",1
"23/09/27","06:50",0.0,23.7,90.8,1006.9,340.8,0.7,1.3,355.7,0.03,22.1,23.8,"06:40:40",1
"23/09/27","07:00",0.0,23.9,90.8,1006.9,323.1,0.7,1.1,328.7,0.03,22.3,23.7,"06:50:40",1
"23/09/27","07:10",0.0,24.0,90.5,1006.9,316.7,0.6,1.6,345.3,0.04,22.4,23.7,"07:06:56",1
"23/09/27","07:20",0.0,24.4,89.3,1006.9,261.2,0.6,1.1,201.4,0.07,22.6,23.7,"07:15:12",1
"23/09/27","07:30",0.0,24.6,88.6,1006.9,269.0,0.6,1.1,305.2,0.04,22.6,23.6,"07:28:40",1
"23/09/27","07:40",0.0,24.5,87.6,1006.9,308.5,0.7,1.8,337.2,0.01,22.3,23.6,"07:37:52",1
"23/09/27","07:50",0.0,24.8,86.3,1006.9,322.4,1.0,1.6,339.0,0.07,22.4,23.6,"07:40:40",1
"23/09/27","08:00",0.0,25.8,83.9,1006.4,301.8,0.2,1.1,237.4,0.15,22.9,23.7,"07:57:44",1
"23/09/27","08:10",0.0,26.5,80.7,1006.4,272.8,0.2,1.1,231.6,0.16,23.0,23.8,"08:05:44",1
"23/09/27","08:20",0.0,27.1,76.9,1005.5,177.0,0.5,0.9,224.5,0.18,22.7,23.7,"08:12:08",1
"23/09/27","08:30",0.0,27.8,74.9,1005.7,105.4,0.6,1.8,108.0,0.21,23.0,23.7,"08:20:02",1
"23/09/27","08:40",0.0,27.8,72.7,1006.0,91.3,0.6,1.6,107.9,0.16,22.5,23.8,"08:33:36",1
"23/09/27","08:50",0.0,27.9,72.2,1006.2,167.3,0.6,2.5,180.9,0.21,22.5,23.8,"08:49:20",1
"23/09/27","09:00",0.0,28.0,72.2,1006.4,198.0,1.2,2.5,207.2,0.24,22.6,23.9,"08:52:40",1
"23/09/27","09:10",0.0,27.8,72.3,1006.2,155.5,0.8,2.6,119.8,0.13,22.4,23.9,"09:07:44",1
"23/09/27","09:20",0.0,27.7,72.8,1006.2,143.6,0.5,1.3,193.5,0.09,22.4,24.0,"09:10:24",1
"23/09/27","09:30",0.0,27.7,73.8,1006.2,193.0,0.5,1.4,225.6,0.08,22.6,23.9,"09:25:28",1
"23/09/27","09:40",0.0,28.1,74.0,1006.2,123.5,0.3,1.0,145.5,0.15,23.1,24.1,"09:35:36",1
"23/09/27","09:50",0.0,28.2,72.7,1006.0,192.5,0.3,1.0,243.8,0.09,22.9,24.0,"09:42:32",1
"23/09/27","10:00",0.0,27.8,73.0,1005.7,98.3,0.5,1.2,72.4,0.04,22.6,24.1,"09:50:08",1
"23/09/27","10:10",0.0,27.8,73.5,1005.7,62.0,0.3,1.8,344.1,0.13,22.7,24.2,"10:09:12",1
"23/09/27","10:20",0.0,28.8,72.5,1005.7,99.2,0.3,1.1,97.3,0.25,23.4,24.2,"10:17:52",1
"23/09/27","10:30",0.0,29.5,69.9,1006.0,172.6,1.5,3.2,222.6,0.41,23.5,24.1,"10:25:20",1
"23/09/27","10:40",0.0,30.0,66.4,1006.7,135.1,1.1,2.1,122.4,0.32,23.1,24.1,"10:34:00",1
"23/09/27","10:50",0.0,30.2,66.9,1006.4,151.7,1.0,2.1,120.4,0.33,23.4,24.2,"10:44:16",1
"23/09/27","11:00",0.0,29.8,65.4,1006.7,248.7,1.1,2.6,230.8,0.18,22.7,24.3,"10:56:40",1
"23/09/27","11:10",0.0,29.7,66.8,1006.2,242.3,1.0,3.4,237.1,0.24,22.9,24.3,"11:02:56",1
"23/09/27","11:20",0.0,30.0,64.6,1006.2,1.7,1.3,4.1,347.9,0.25,22.6,24.6,"11:18:08",1
"23/09/27","11:30",0.0,29.7,64.7,1005.7,352.8,1.6,3.1,356.5,0.17,22.4,24.5,"11:26:32",1
"23/09/27","11:40",0.0,30.3,64.3,1006.0,250.3,1.2,2.8,202.0,0.29,22.8,24.6,"11:33:28",1
"23/09/27","11:50",0.0,30.5,63.6,1005.7,2.2,0.7,1.8,23.9,0.16,22.9,24.6,"11:47:44",1
"23/09/27","12:00",0.0,31.0,62.5,1006.0,201.7,0.8,2.4,340.3,0.29,23.0,24.9,"11:50:02",1
"23/09/27","12:10",0.0,30.6,63.4,1005.2,314.7,1.1,3.1,346.9,0.14,22.9,24.7,"12:03:52",1
"23/09/27","12:20",0.0,31.1,63.0,1005.2,192.1,1.0,3.4,229.2,0.35,23.3,24.7,"12:15:52",1
"23/09/27","12:30",0.0,31.5,60.2,1005.5,276.8,1.3,3.3,298.3,0.38,22.9,24.9,"12:26:24",1
"23/09/27","12:40",0.0,31.7,60.4,1005.5,318.3,1.6,4.8,334.7,0.40,23.1,24.9,"12:30:32",1
"23/09/27","12:50",0.0,31.8,59.5,1005.5,273.4,1.6,3.6,203.8,0.34,23.0,25.0,"12:41:52",1
"23/09/27","13:00",0.0,31.4,58.5,1005.5,248.4,1.6,4.2,244.9,0.25,22.3,25.0,"12:50:56",1
"23/09/27","13:10",0.0,31.3,59.3,1005.0,297.3,1.2,2.9,250.9,0.25,22.5,25.2,"13:06:00",1
"23/09/27","13:20",0.0,31.2,59.7,1004.8,292.7,1.5,3.3,306.5,0.25,22.5,25.2,"13:15:44",1
"23/09/27","13:30",0.0,31.1,59.3,1004.8,267.2,1.6,4.4,355.2,0.19,22.3,25.1,"13:22:24",1
"23/09/27","13:40",0.0,30.9,60.4,1004.3,250.9,1.7,5.0,223.0,0.21,22.4,25.4,"13:34:24",1
"23/09/27","13:50",0.0,31.1,60.1,1004.3,300.9,1.3,5.1,335.2,0.28,22.5,25.3,"13:48:08",1
"23/09/27","14:00",0.0,31.7,57.6,1004.5,303.3,1.2,3.7,333.1,0.32,22.3,25.5,"13:59:28",1
"23/09/27","14:10",0.0,31.0,58.9,1004.1,330.9,1.6,4.4,336.1,0.13,22.1,25.4,"14:05:44",1
"23/09/27","14:20",0.0,30.8,60.6,1003.8,318.8,1.2,3.4,344.1,0.13,22.3,25.3,"14:18:56",1
"23/09/27","14:30",0.0,31.8,57.8,1004.1,305.9,1.0,2.6,331.4,0.28,22.5,25.4,"14:27:04",1
"23/09/27","14:40",0.0,32.2,57.6,1004.1,298.8,1.2,2.6,239.6,0.27,22.8,25.6,"14:35:36",1
"23/09/27","14:50",0.0,32.3,56.3,1004.5,222.2,1.5,3.7,243.7,0.27,22.5,25.4,"14:40:16",1
"23/09/27","15:00",0.0,32.1,56.4,1004.3,237.6,1.7,5.5,336.5,0.24,22.4,25.6,"14:55:52",1
"23/09/27","15:10",0.0,31.3,58.0,1004.1,232.0,2.6,5.0,225.6,0.13,22.1,25.7,"15:06:56",1
"23/09/27","15:20",0.0,31.3,58.9,1004.1,292.8,1.2,3.1,332.1,0.11,22.3,25.7,"15:14:48",1
"23/09/27","15:30",0.0,31.1,58.3,1003.8,257.2,1.3,4.4,228.6,0.10,22.0,25.7,"15:22:00",1
"23/09/27","15:40",0.0,30.8,59.6,1003.4,233.9,2.1,4.3,247.1,0.08,22.1,25.6,"15:39:44",1
"23/09/27","15:50",0.0,30.7,59.7,1003.1,230.9,2.5,4.4,215.3,0.09,22.0,25.7,"15:41:12",1
"23/09/27","16:00",0.0,30.8,60.8,1002.9,222.0,1.2,3.9,225.9,0.07,22.4,25.7,"15:50:08",1
"23/09/27","16:10",0.0,30.7,60.8,1002.9,271.9,1.1,3.4,230.3,0.03,22.3,25.5,"16:05:28",1
"23/09/27","16:20",0.0,30.5,61.8,1002.6,274.8,1.0,2.0,240.2,0.03,22.4,25.6,"16:12:40",1
"23/09/27","16:30",0.0,30.3,62.1,1002.6,305.4,0.6,2.4,338.0,0.03,22.3,25.7,"16:21:52",1
"23/09/27","16:40",0.0,30.3,62.6,1002.6,340.5,0.8,1.8,331.6,0.05,22.4,25.5,"16:34:00",1
"23/09/27","16:50",0.0,30.2,63.9,1002.6,320.2,0.5,1.1,354.8,0.02,22.6,25.5,"16:42:24",1
"23/09/27","17:00",0.0,29.8,63.6,1002.6,325.6,0.6,1.6,343.7,0.00,22.2,25.4,"16:53:04",1
"23/09/27","17:10",0.0,29.6,66.6,1001.9,346.4,0.8,2.2,351.7,0.00,22.8,25.5,"17:05:44",1
"23/09/27","17:20",0.0,29.1,68.4,1002.2,344.9,0.7,1.6,323.5,0.00,22.7,25.5,"17:10:24",1
"23/09/27","17:30",0.0,28.6,69.6,1001.7,302.0,0.6,1.2,331.0,0.00,22.5,25.7,"17:22:40",1
"23/09/27","17:40",0.0,28.4,70.9,1002.4,282.3,0.5,1.4,327.8,0.00,22.7,25.4,"17:37:12",1
"23/09/27","17:50",0.0,28.1,71.9,1002.2,275.3,0.5,1.7,259.2,0.00,22.6,25.4,"17:45:12",1
"23/09/27","18:00",0.0,28.0,72.3,1002.4,295.2,0.6,1.6,252.1,0.00,22.6,25.4,"17:53:20",1
"23/09/27","18:10",0.0,27.8,73.2,1002.6,310.1,0.8,1.7,317.1,0.00,22.6,25.6,"18:00:02",1
"23/09/27","18:20",0.0,27.7,73.8,1002.6,322.9,1.1,1.8,327.3,0.00,22.6,25.6,"18:15:36",1
"23/09/27","18:30",0.0,27.5,74.2,1002.6,303.0,0.7,1.6,330.2,0.00,22.5,25.5,"18:23:36",1
"23/09/27","18:40",0.0,27.4,75.2,1002.6,323.9,0.8,1.8,324.6,0.00,22.7,25.4,"18:36:48",1
"23/09/27","18:50",0.0,27.1,76.7,1002.9,335.4,1.0,1.9,339.3,0.00,22.7,25.4,"18:47:28",1
"23/09/27","19:00",0.0,26.9,77.6,1003.1,334.8,1.3,2.2,332.2,0.00,22.7,25.4,"18:52:48",1
"23/09/27","19:10",0.0,26.8,78.0,1003.1,336.4,1.0,1.6,351.2,0.00,22.7,25.4,"19:04:00",1
"23/09/27","19:20",0.0,26.7,78.3,1003.6,319.6,0.5,1.2,333.3,0.00,22.6,25.3,"19:10:24",1
"23/09/27","19:30",0.0,26.6,78.7,1003.6,301.2,0.3,1.0,326.7,0.00,22.6,25.3,"19:21:20",1
"23/09/27","19:40",0.0,26.5,78.8,1003.6,274.7,0.1,0.5,264.3,0.00,22.6,25.3,"19:32:32",1
"23/09/27","19:50",0.0,26.5,79.0,1003.8,153.9,0.2,1.0,97.2,0.00,22.6,25.3,"19:40:02",1
"23/09/27","20:00",0.0,26.7,78.8,1004.1,339.1,0.6,1.3,348.2,0.00,22.8,25.4,"19:59:20",1
"23/09/27","20:10",0.0,26.7,79.0,1004.3,300.8,0.5,1.1,341.8,0.00,22.8,25.2,"20:00:32",1
"23/09/27","20:20",0.0,26.5,79.4,1004.5,317.9,0.8,1.2,305.5,0.00,22.7,25.2,"20:13:20",1
"23/09/27","20:30",0.0,26.4,79.7,1004.3,335.2,1.0,1.6,335.4,0.00,22.6,25.3,"20:25:12",1
"23/09/27","20:40",0.0,26.4,80.3,1004.3,271.1,0.3,1.0,254.7,0.00,22.8,25.0,"20:38:00",1
"23/09/27","20:50",0.0,26.6,80.9,1004.5,236.7,0.5,1.3,44.2,0.00,23.1,25.1,"20:49:12",1
"23/09/27","21:00",0.0,26.3,81.0,1004.5,332.4,1.0,1.8,353.7,0.00,22.8,25.2,"20:53:44",1
"23/09/27","21:10",0.0,26.1,81.5,1005.0,141.4,0.2,0.9,74.6,0.00,22.7,25.0,"21:08:00",1
"23/09/27","21:20",0.0,26.2,82.2,1004.8,249.4,0.3,1.7,342.2,0.00,23.0,25.2,"21:19:52",1
"23/09/27","21:30",0.0,26.0,82.7,1004.8,327.6,1.0,1.4,336.6,0.00,22.9,25.1,"21:20:32",1
"23/09/27","21:40",0.0,25.8,83.1,1004.8,304.4,0.6,0.9,296.0,0.00,22.8,25.2,"21:31:28",1
"23/09/27","21:50",0.0,25.7,83.4,1005.0,305.6,1.0,1.7,313.7,0.00,22.7,25.0,"21:46:16",1
"23/09/27","22:00",0.0,25.7,83.5,1005.0,315.1,1.0,1.6,324.1,0.00,22.7,25.0,"21:52:40",1
"23/09/27","22:10",0.0,25.7,83.6,1005.0,311.1,1.0,1.8,350.7,0.00,22.8,25.2,"22:05:20",1
"23/09/27","22:20",0.0,25.6,83.7,1005.2,300.6,0.8,1.4,332.5,0.00,22.7,25.0,"22:10:40",1
"23/09/27","22:30",0.0,25.7,83.8,1005.0,285.4,0.7,1.3,302.9,0.00,22.8,25.1,"22:28:40",1
"23/09/27","22:40",0.0,25.6,83.9,1005.0,320.5,1.0,1.6,323.8,0.00,22.7,24.8,"22:37:12",1
"23/09/27","22:50",0.0,25.6,83.9,1005.2,294.1,0.7,1.4,337.8,0.00,22.7,24.9,"22:49:20",1
"23/09/27","23:00",0.0,25.6,84.0,1004.8,308.9,0.8,1.6,343.1,0.00,22.7,25.1,"22:52:08",1
"23/09/27","23:10",0.0,25.6,84.0,1005.0,327.7,1.0,1.8,346.4,0.00,22.7,24.9,"23:06:48",1
"23/09/27","23:20",0.0,25.3,84.2,1005.0,316.3,0.6,1.0,327.0,0.00,22.5,25.0,"23:10:32",1
"23/09/27","23:30",0.0,25.1,84.6,1005.0,275.8,0.2,0.6,273.3,0.00,22.4,24.9,"23:29:20",1
"23/09/27","23:40",0.0,25.0,85.2,1005.2,289.8,0.7,1.0,312.6,0.00,22.4,24.7,"23:32:48",1
"23/09/27","23:50",0.0,24.9,85.6,1005.0,324.8,0.7,1.4,323.0,0.00,22.4,24.9,"23:48:24",1
"23/09/27","24:00",0.0,24.8,85.8,1005.2,311.1,0.7,1.6,320.7,0.00,22.3,24.9,"23:51:28",1
